When you browse on this site, cookies collect data to enhance your experience and personalize the content and advertising you see.
Visit our Privacy Policy to learn more. By continuing to use the site, you agree to this use of cookies and data.
  • Em Portugal
  • Lista de países
  • Para 7 dias
  • Temperatura da água
  • Mapas de satélite
  • Mapa do tempo
  • Widgets de tempo
  • user-avatar
    Iniciar Sessão

    Previsão horária em Cobe

    Hoje, 19 Novembro, Segunda-feira

    Tempo Temperatura Precipitação Vento Pressão Humidade
    00:00 +15°C° 0 mm 2 m/s 757 mmHg 67%
    01:00 +15°C° 0.5 mm 2 m/s 757 mmHg 72%
    02:00 +14°C° 0.5 mm 3 m/s 757 mmHg 76%
    03:00 +14°C° 0 mm 4 m/s 757 mmHg 80%
    04:00 +14°C° 0.6 mm 4 m/s 757 mmHg 82%
    05:00 +13°C° 0.6 mm 4 m/s 757 mmHg 83%
    06:00 +13°C° 0.6 mm 4 m/s 757 mmHg 85%
    07:00 +13°C° 0.4 mm 4 m/s 757 mmHg 83%
    08:00 +13°C° 0.4 mm 4 m/s 757 mmHg 82%
    09:00 +13°C° 0 mm 3 m/s 758 mmHg 81%
    10:00 +14°C° 0.2 mm 3 m/s 757 mmHg 78%
    11:00 +14°C° 0.2 mm 4 m/s 757 mmHg 74%
    12:00 +14°C° 0.2 mm 4 m/s 757 mmHg 71%
    13:00 +14°C° 0.1 mm 5 m/s 757 mmHg 70%
    14:00 +14°C° 0.1 mm 5 m/s 756 mmHg 68%
    15:00 +14°C° 0 mm 4 m/s 756 mmHg 68%
    16:00 +13°C° 0.1 mm 5 m/s 757 mmHg 71%
    17:00 +13°C° 0.1 mm 5 m/s 757 mmHg 73%
    18:00 +11°C° 0.1 mm 6 m/s 757 mmHg 75%
    19:00 +11°C° 0 mm 6 m/s 757 mmHg 76%
    20:00 +10°C° 0 mm 6 m/s 758 mmHg 77%
    21:00 +10°C° 0 mm 5 m/s 758 mmHg 78%
    22:00 +10°C° 0 mm 5 m/s 758 mmHg 77%
    23:00 +9°C° 0 mm 5 m/s 758 mmHg 77%

    Amanhã, 20 Novembro, Terça-feira

    Tempo Temperatura Precipitação Vento Pressão Humidade
    00:00 +9°C° 0 mm 5 m/s 758 mmHg 76%
    01:00 +9°C° 0 mm 5 m/s 758 mmHg 76%
    02:00 +9°C° 0 mm 5 m/s 759 mmHg 76%
    03:00 +8°C° 0 mm 5 m/s 759 mmHg 76%
    04:00 +8°C° 0 mm 5 m/s 759 mmHg 76%
    05:00 +8°C° 0 mm 4 m/s 759 mmHg 77%
    06:00 +8°C° 0 mm 4 m/s 760 mmHg 77%
    07:00 +10°C° 0 mm 4 m/s 760 mmHg 73%
    08:00 +11°C° 0 mm 4 m/s 760 mmHg 68%
    09:00 +11°C° 0 mm 4 m/s 761 mmHg 64%
    10:00 +12°C° 0 mm 4 m/s 760 mmHg 59%
    11:00 +13°C° 0 mm 4 m/s 760 mmHg 55%
    12:00 +14°C° 0 mm 4 m/s 760 mmHg 50%
    13:00 +14°C° 0 mm 4 m/s 760 mmHg 51%
    14:00 +14°C° 0 mm 4 m/s 760 mmHg 51%
    15:00 +14°C° 0 mm 4 m/s 761 mmHg 51%
    16:00 +13°C° 0 mm 3 m/s 761 mmHg 55%
    17:00 +12°C° 0 mm 3 m/s 761 mmHg 59%
    18:00 +11°C° 0 mm 3 m/s 762 mmHg 63%
    19:00 +11°C° 0 mm 3 m/s 762 mmHg 65%
    20:00 +10°C° 0 mm 3 m/s 763 mmHg 66%
    21:00 +10°C° 0 mm 3 m/s 763 mmHg 68%
    22:00 +9°C° 0 mm 3 m/s 763 mmHg 68%
    23:00 +9°C° 0 mm 3 m/s 763 mmHg 68%

    Depois de amanhã, 21 Novembro, Quarta-feira

    Tempo Temperatura Precipitação Vento Pressão Humidade
    00:00 +9°C° 0 mm 2 m/s 763 mmHg 68%
    01:00 +9°C° 0 mm 2 m/s 763 mmHg 68%
    02:00 +8°C° 0 mm 2 m/s 763 mmHg 67%
    03:00 +8°C° 0 mm 2 m/s 763 mmHg 67%
    04:00 +8°C° 0 mm 2 m/s 763 mmHg 66%
    05:00 +8°C° 0 mm 2 m/s 763 mmHg 66%
    06:00 +8°C° 0 mm 2 m/s 763 mmHg 65%
    07:00 +9°C° 0 mm 2 m/s 763 mmHg 61%
    08:00 +12°C° 0 mm 2 m/s 763 mmHg 56%
    09:00 +13°C° 0 mm 2 m/s 764 mmHg 51%
    10:00 +15°C° 0 mm 2 m/s 763 mmHg 47%
    11:00 +16°C° 0 mm 2 m/s 763 mmHg 42%
    12:00 +19°C° 0 mm 1 m/s 762 mmHg 38%
    13:00 +18°C° 0 mm 1 m/s 762 mmHg 38%
    14:00 +18°C° 0 mm 1 m/s 761 mmHg 38%
    15:00 +18°C° 0 mm 1 m/s 761 mmHg 38%
    16:00 +16°C° 0 mm 1 m/s 761 mmHg 43%
    17:00 +14°C° 0 mm 1 m/s 761 mmHg 48%
    18:00 +13°C° 0 mm 1 m/s 761 mmHg 53%
    19:00 +13°C° 0 mm 1 m/s 761 mmHg 53%
    20:00 +12°C° 0 mm 1 m/s 761 mmHg 54%
    21:00 +12°C° 0 mm 1 m/s 761 mmHg 54%
    22:00 +12°C° 0 mm 1 m/s 760 mmHg 54%
    23:00 +12°C° 0 mm 1 m/s 760 mmHg 54%

    22 Novembro, Quinta-feira

    Tempo Temperatura Precipitação Vento Pressão Humidade
    00:00 +12°C° 0 mm 1 m/s 760 mmHg 54%
    01:00 +12°C° 0 mm 1 m/s 760 mmHg 53%
    02:00 +12°C° 0 mm 1 m/s 760 mmHg 52%
    03:00 +12°C° 0 mm 1 m/s 759 mmHg 51%
    04:00 +12°C° 0 mm 2 m/s 759 mmHg 52%
    05:00 +12°C° 0 mm 2 m/s 759 mmHg 52%
    06:00 +12°C° 0 mm 2 m/s 759 mmHg 53%
    07:00 +12°C° 0 mm 2 m/s 759 mmHg 54%
    08:00 +12°C° 0 mm 3 m/s 759 mmHg 54%
    09:00 +13°C° 0 mm 3 m/s 759 mmHg 55%
    10:00 +13°C° 0.1 mm 4 m/s 759 mmHg 57%
    11:00 +14°C° 0.1 mm 4 m/s 758 mmHg 58%
    12:00 +14°C° 0.1 mm 4 m/s 758 mmHg 59%
    13:00 +14°C° 0 mm 4 m/s 758 mmHg 58%
    14:00 +14°C° 0 mm 5 m/s 758 mmHg 58%
    15:00 +15°C° 0 mm 5 m/s 758 mmHg 57%
    16:00 +13°C° 0.2 mm 5 m/s 758 mmHg 62%
    17:00 +11°C° 0.2 mm 6 m/s 758 mmHg 68%
    18:00 +10°C° 0.2 mm 6 m/s 759 mmHg 73%
    19:00 +10°C° 0.1 mm 6 m/s 759 mmHg 73%
    20:00 +9°C° 0.1 mm 6 m/s 760 mmHg 73%
    21:00 +9°C° 0.1 mm 6 m/s 760 mmHg 72%
    22:00 +8°C° 0 mm 6 m/s 761 mmHg 72%
    23:00 +8°C° 0 mm 5 m/s 761 mmHg 71%

    23 Novembro, Sexta-feira

    Tempo Temperatura Precipitação Vento Pressão Humidade
    00:00 +7°C° 0 mm 5 m/s 761 mmHg 70%
    01:00 +7°C° 0 mm 5 m/s 761 mmHg 70%
    02:00 +7°C° 0 mm 5 m/s 761 mmHg 70%
    03:00 +6°C° 0 mm 4 m/s 761 mmHg 71%
    04:00 +6°C° 0 mm 4 m/s 761 mmHg 71%
    05:00 +6°C° 0 mm 4 m/s 761 mmHg 71%
    06:00 +6°C° 0 mm 4 m/s 761 mmHg 71%
    07:00 +7°C° 0 mm 5 m/s 761 mmHg 66%
    08:00 +8°C° 0 mm 5 m/s 762 mmHg 61%
    09:00 +10°C° 0 mm 6 m/s 762 mmHg 55%
    10:00 +10°C° 0 mm 6 m/s 761 mmHg 54%
    11:00 +11°C° 0 mm 6 m/s 761 mmHg 52%
    12:00 +13°C° 0 mm 6 m/s 760 mmHg 50%
    13:00 +13°C° 0 mm 6 m/s 760 mmHg 51%
    14:00 +12°C° 0 mm 5 m/s 760 mmHg 53%
    15:00 +12°C° 0 mm 5 m/s 759 mmHg 55%
    16:00 +11°C° 0 mm 4 m/s 760 mmHg 60%
    17:00 +10°C° 0 mm 4 m/s 760 mmHg 65%
    18:00 +8°C° 0 mm 4 m/s 760 mmHg 69%
    19:00 +9°C° 0 mm 3 m/s 760 mmHg 71%
    20:00 +8°C° 0 mm 3 m/s 761 mmHg 73%
    21:00 +8°C° 0 mm 3 m/s 761 mmHg 74%
    22:00 +8°C° 0 mm 3 m/s 761 mmHg 75%
    23:00 +8°C° 0 mm 3 m/s 761 mmHg 75%

    24 Novembro, Sábado

    Tempo Temperatura Precipitação Vento Pressão Humidade
    00:00 +8°C° 0 mm 3 m/s 760 mmHg 75%
    01:00 +8°C° 0 mm 3 m/s 760 mmHg 75%
    02:00 +8°C° 0 mm 3 m/s 760 mmHg 75%
    03:00 +8°C° 0 mm 3 m/s 760 mmHg 74%
    04:00 +8°C° 0 mm 3 m/s 759 mmHg 75%
    05:00 +7°C° 0 mm 3 m/s 759 mmHg 76%
    06:00 +7°C° 0 mm 3 m/s 759 mmHg 77%
    07:00 +8°C° 0 mm 3 m/s 759 mmHg 71%
    08:00 +9°C° 0 mm 2 m/s 759 mmHg 65%
    09:00 +12°C° 0 mm 2 m/s 759 mmHg 59%
    10:00 +13°C° 0 mm 2 m/s 759 mmHg 55%
    11:00 +12°C° 0 mm 3 m/s 758 mmHg 51%
    12:00 +13°C° 0 mm 3 m/s 758 mmHg 47%
    13:00 +13°C° 0.1 mm 3 m/s 758 mmHg 49%
    14:00 +13°C° 0.1 mm 4 m/s 758 mmHg 50%
    15:00 +12°C° 0.1 mm 5 m/s 758 mmHg 52%
    16:00 +10°C° 0.1 mm 5 m/s 758 mmHg 57%
    17:00 +9°C° 0.1 mm 6 m/s 759 mmHg 62%
    18:00 +8°C° 0.1 mm 7 m/s 759 mmHg 67%
    19:00 +8°C° 0 mm 7 m/s 760 mmHg 68%
    20:00 +7°C° 0 mm 6 m/s 760 mmHg 70%
    21:00 +7°C° 0 mm 6 m/s 760 mmHg 71%
    22:00 +7°C° 0 mm 6 m/s 760 mmHg 73%
    23:00 +6°C° 0 mm 5 m/s 760 mmHg 74%
    Mostrar mais